Kuchera_Ratio
3.3 1.7 2.4 5.4 6.1 5.8 9.1 7.1 11.4 3.6 5.1 0.0 0.0 0.0 0.0 0.0 0.0 0.0 0.0 0.0 0.0 0.0 0.0 0.0 0.0 0.0 0.0 0.0 0.0 0.0 0.0 0.0 0.0 0.0 0.0 0.0 0.0 0.0 0.0 0.0 0.0 0.0 0.0 0.7
7.3 0.8 1.0 6.5 2.7 4.3 3.7 4.1 6.0 4.0 4.3 0.0 0.0 0.0 0.0 0.0 0.0 0.0 0.0 0.0 0.0 0.0 0.0 0.0 0.0 0.0 0.0 0.0 0.0 0.0 0.0 0.0 0.0 0.0 0.0 0.0 0.0 0.0 0.0 0.0 0.3 0.7 1.7 2.7
10.8 0.9 1.8 5.6 2.7 3.8 3.3 1.6 1.7 8.4 0.0 0.0 0.0 0.0 0.0 0.0 0.0 0.0 0.0 0.0 0.0 0.0 0.0 0.0 0.0 0.0 0.0 0.0 0.0 0.0 0.0 0.0 0.0 0.0 0.0 0.0 0.0 0.0 0.5 1.7 1.6 2.7 3.0 3.3
8.6 4.8 12.5 0.0 0.0 0.0 1.1 0.0 0.0 0.0 0.0 0.0 0.0 0.0 0.0 0.0 0.0 0.0 0.0 0.0 0.0 0.0 0.0 0.0 0.0 0.0 0.0 0.0 0.0 0.0 0.0 0.0 0.0 0.0 0.1 0.1 0.1 1.3 2.3 2.3 3.3 3.4 4.0 4.8
8.0 8.3 2.3 0.0 0.0 0.0 2.1 0.0 0.0 0.0 0.0 0.0 0.0 0.0 0.0 0.0 0.0 0.0 0.0 0.0 0.0 0.0 0.0 0.0 0.0 0.0 0.0 0.0 0.0 0.0 0.0 0.0 0.0 0.0 0.5 0.4 2.6 3.0 3.7 3.7 4.2 4.9 4.9 6.1
7.0 10.0 12.3 0.1 0.0 0.0 0.0 2.4 0.0 0.0 0.0 0.0 0.0 0.0 0.0 0.0 0.0 0.0 0.0 0.0 0.0 0.0 0.0 0.0 0.0 0.0 0.0 0.0 0.0 0.0 0.0 0.1 0.0 0.0 0.2 2.8 3.9 4.5 5.6 5.4 4.7 4.8 6.2 5.8
6.6 8.1 4.2 0.0 0.0 0.0 4.0 0.0 0.0 0.0 0.0 0.0 0.0 0.0 0.0 0.0 0.0 0.0 0.0 0.0 0.0 0.0 0.0 0.0 0.0 0.0 0.0 0.0 0.0 0.6 0.4 0.6 0.9 0.9 3.4 4.3 5.1 6.1 6.9 6.9 7.5 8.4 7.7 7.2
4.2 8.2 11.7 0.0 0.0 0.0 0.0 0.0 0.0 0.0 0.0 0.0 0.0 0.0 0.0 0.0 0.0 0.0 0.0 0.0 0.0 0.0 0.0 0.0 0.0 0.0 0.0 0.0 1.4 0.4 1.6 2.5 3.5 4.0 3.1 5.7 6.7 7.7 8.3 9.0 9.6 10.0 9.8 7.2
2.8 1.1 0.0 0.0 0.0 0.0 0.0 0.0 0.0 0.0 0.0 0.0 0.0 0.0 0.0 0.0 0.0 0.0 0.0 0.0 0.0 0.0 0.0 0.0 0.0 0.0 0.0 0.6 1.8 2.3 2.7 3.5 4.5 5.9 6.4 6.8 7.6 8.8 8.3 10.3 11.0 10.6 9.4 9.3
0.0 0.0 0.0 0.0 0.0 0.0 0.0 0.0 0.0 0.0 0.0 0.0 0.0 0.0 0.0 0.0 0.0 0.0 0.0 0.0 0.0 0.0 0.0 0.0 0.0 0.0 0.0 1.4 2.2 2.3 3.5 5.5 6.5 6.9 7.9 8.9 6.8 8.1 10.3 10.9 11.0 9.5 9.8 10.0
0.0 0.0 0.0 0.0 0.0 0.0 0.0 0.0 0.0 0.0 0.0 0.0 0.0 0.0 0.0 0.0 0.0 0.0 0.0 0.0 0.0 0.0 0.0 0.0 0.1 0.4 2.1 2.7 2.7 4.0 5.2 6.5 7.6 8.5 9.1 9.9 9.5 10.0 9.7 9.3 8.5 7.5 8.2 8.5
0.0 0.0 0.0 0.0 0.0 0.0 0.0 0.0 0.0 0.0 0.0 0.0 0.0 0.0 0.0 0.0 0.0 0.0 0.0 0.0 0.0 0.0 0.0 2.4 2.4 3.6 4.5 3.8 2.6 3.8 6.0 8.2 9.0 9.7 10.9 10.3 11.9 11.6 7.7 5.1 4.6 4.3 4.4 5.5
0.0 0.0 0.0 0.0 0.0 0.0 0.0 0.0 0.0 0.0 0.0 0.0 0.0 0.0 0.0 0.0 0.0 0.0 0.0 0.0 0.0 0.9 1.8 3.6 4.1 5.1 6.0 5.4 4.9 6.1 6.8 8.9 9.3 11.8 12.2 12.4 12.6 12.4 13.1 10.0 7.4 6.8 6.5 6.2
0.0 0.0 0.0 0.0 0.0 0.0 0.0 0.0 0.0 0.0 0.0 0.0 0.0 0.0 0.0 0.0 0.0 0.1 0.8 0.9 1.5 2.3 3.9 5.0 6.0 7.0 7.8 6.9 6.7 7.8 9.3 7.8 11.6 12.3 12.0 12.3 12.4 12.7 12.9 13.5 13.9 13.2 10.2 9.1
0.0 0.0 0.0 0.0 0.0 0.0 0.0 0.0 0.0 0.0 0.0 0.0 0.0 0.0 0.0 0.0 0.7 1.7 2.6 3.2 3.9 4.7 6.3 6.8 7.2 8.2 9.1 8.3 8.7 10.4 11.1 11.5 12.1 12.2 12.3 11.3 12.6 13.0 13.2 13.5 13.9 14.2 13.5 12.3
0.0 0.0 0.0 0.0 0.0 0.0 0.0 0.0 0.0 0.0 0.0 0.0 0.0 0.0 0.4 0.7 2.1 3.6 4.6 4.7 4.0 6.2 7.9 8.0 9.0 10.5 10.4 9.9 10.6 11.7 11.4 7.1 9.6 12.6 13.1 13.3 13.5 13.8 13.9 14.3 14.6 14.5 14.6 14.4
0.0 0.0 0.0 0.0 0.0 0.0 0.0 0.0 0.0 0.0 0.0 0.0 0.2 0.8 1.3 2.1 3.6 5.5 7.2 6.2 6.3 8.5 9.1 8.6 10.4 11.5 11.3 11.2 11.5 12.2 12.6 12.7 10.5 13.5 13.9 14.0 14.1 14.3 14.4 14.6 15.0 15.1 15.1 14.1
0.0 0.0 0.0 0.0 0.0 0.0 0.0 0.0 0.0 0.0 0.0 0.0 0.8 2.0 2.4 3.3 3.4 5.4 6.7 8.2 9.1 9.7 10.8 11.5 11.8 12.0 12.1 12.3 12.6 13.0 13.3 13.8 13.9 14.6 14.5 14.7 14.0 14.5 15.1 15.4 15.6 15.9 15.5 14.9
0.0 0.0 0.0 0.0 0.0 0.0 0.0 0.0 0.0 0.0 0.0 0.6 1.6 3.0 3.6 4.5 5.7 6.3 7.7 9.1 9.7 10.0 11.8 12.1 8.1 12.3 12.6 10.8 13.3 13.6 14.2 14.8 15.1 15.3 15.4 14.4 15.7 15.5 15.8 16.0 16.0 16.0 16.0 16.2
0.0 0.0 0.0 0.0 0.0 0.0 0.0 0.0 0.0 0.0 0.9 1.5 2.5 3.3 4.3 5.7 6.8 7.2 8.7 9.6 11.2 11.7 12.3 12.7 12.6 13.1 13.4 12.0 12.8 14.6 15.0 15.5 16.0 16.3 16.5 15.8 16.6 16.4 16.6 16.5 16.4 16.9 16.9 16.6
0.0 0.0 0.0 0.0 0.0 0.0 0.0 0.0 0.0 0.0 0.7 1.0 1.4 3.5 4.9 6.3 8.4 9.2 10.1 10.1 12.1 12.2 12.7 12.0 13.1 13.5 13.6 14.0 14.9 15.2 15.8 16.4 16.8 17.4 17.6 17.6 17.8 18.0 17.8 17.9 18.1 17.7 17.6 17.2
0.0 0.0 0.0 0.0 0.0 0.0 0.0 0.0 0.0 0.0 0.9 3.2 4.8 5.3 6.3 7.2 9.0 10.0 11.7 11.3 12.5 10.1 13.2 13.6 13.9 12.1 13.1 13.8 15.4 15.9 16.4 17.1 17.4 17.7 18.1 18.3 18.7 19.2 19.4 19.2 19.4 18.8 18.2 18.1
0.0 0.0 0.0 0.0 0.0 0.0 1.9 1.5 0.5 0.0 1.6 3.7 4.9 6.2 7.2 9.1 10.6 10.4 11.3 12.8 13.5 11.6 13.5 13.6 9.9 10.7 12.8 15.7 16.1 16.5 16.9 17.5 18.0 18.5 18.8 19.3 19.5 20.1 20.2 20.1 19.3 18.5 19.4 19.4
0.8 0.8 0.8 1.0 0.4 0.7 2.1 3.7 2.7 4.6 4.1 5.7 7.3 8.4 8.1 9.7 11.3 12.5 12.4 10.2 8.4 13.0 14.2 13.5 12.3 12.2 14.7 16.2 16.5 16.9 17.4 17.9 18.2 18.7 19.1 17.2 20.1 20.3 20.3 20.1 20.3 19.7 19.6 19.3
3.4 3.7 2.7 2.3 1.6 2.0 2.4 3.9 5.4 5.9 7.0 8.1 9.6 10.5 11.7 12.0 10.9 12.7 13.5 13.5 11.7 15.1 15.4 12.0 12.4 14.2 16.2 16.5 16.9 17.5 17.8 18.3 18.7 19.1 19.5 19.8 20.3 20.6 20.7 20.6 20.6 20.3 18.2 18.5
5.4 5.3 4.5 3.2 0.8 2.8 3.5 5.1 5.2 6.2 7.5 8.0 9.7 11.5 12.3 12.7 13.0 13.6 14.4 14.8 15.1 15.4 15.7 15.9 16.1 16.3 16.6 17.0 17.5 17.9 18.4 18.8 18.9 19.2 19.1 20.0 20.5 20.7 20.7 20.6 20.3 20.1 19.8 19.3
6.2 5.1 4.9 4.6 3.5 3.6 4.6 5.5 5.4 7.1 9.1 9.3 10.2 11.9 12.9 13.5 14.1 14.5 14.9 15.1 15.4 15.8 16.1 16.3 16.5 16.8 17.1 17.6 18.0 18.5 18.9 19.1 19.5 19.4 19.7 20.4 20.6 20.5 20.5 20.3 20.0 19.8 19.5 18.8